Volver al catálogo

NOAA 20

ActivoMeteoSSO
NORAD 43013·PAYLOAD·🇺🇸 United States

Lanzado Nov 18, 2017 desde Vandenberg Space Force Base

Loading…

Próximos Pases (próximas 24 horas)

TLE

ActualizadoSource: Space-Track

Época: Sep 14, 2026, 14:08 UTC

1 43013U 17073A   26257.58906438  .00000050  00000-0  44522-4 0  9990
2 43013  98.7814 196.2715 0001552  50.3391 309.7921 14.19525834457150

Sigue NOAA 20 en tiempo real con AllMySat

Download on the App Store